Regional Weather Roundup
Issued by NWS

Home | Current Version | Previous Version | Text Only | Print | Product List | Glossary On
Versions: 1 2 3 4 5 6 7 8 9 10 11 12 13 14 15 16 17 18 19 20 21 22 23 24 25 26 27 28 29 30 31 32 33 34 35 36 37 38 39 40 41 42 43 44 45 46 47 48 49 50
000
ASUS44 KLIX 280205
RWRLA
LOUISIANA WEATHER ROUNDUP
NATIONAL WEATHER SERVICE NEW ORLEANS LA
900 PM CDT WED AUG 27 2014

NOTE: "FAIR" INDICATES FEW OR NO CLOUDS BELOW 12,000 FEET WITH NO
      SIGNIFICANT WEATHER AND/OR OBSTRUCTIONS TO VISIBILITY.
      SKY/WX - SKY CONDITION AND SIGNIFICANT WEATHER.
      TMP - AIR TEMPERATURE.    DP   - DEWPOINT TEMPERATURE.
      RH  - RELATIVE HUMIDITY.  PRES - PRESSURE.
      HX  - HEAT INDEX.         WCI  - WIND CHILL INDEX.

*  THESE STATIONS ARE NOT NWS OR FAA STATIONS AND ARE NOT UNDER
   NWS QUALITY CONTROL.

LAZ040-048-061>063-065-066-069-280300-
SOUTHEAST LOUISIANA

CITY           SKY/WX    TMP DP  RH WIND       PRES   REMARKS
N.O. AUDUBON   NOT AVBL
N.O. INTL ARPT MOCLDY    83  75  77 SE6       29.98S
N.O. LAKEFRONT PTCLDY    83  75  77 SE7       29.99R
N.O. DOWNTOWN* FAIR      82  72  69 SE3       29.99S
SLIDELL        PTCLDY    80  76  87 CALM      29.98S
BATON ROUGE    MOCLDY    82  73  74 S6        29.99R
BOOTHVILLE     MOCLDY    82  76  81 SE3       29.99R
BELLE CHASSE   MOCLDY    82  74  76 SE5       29.98S
BOGALUSA*      CLOUDY    81  74  79 CALM      30.01S
GALLIANO*      NOT AVBL
NEW ROADS*     FAIR      79  75  87 CALM      29.99R
GONZALES*      FAIR      78  78 100 CALM      29.98S
HAMMOND*       MOCLDY    82  73  74 CALM      30.00S
HOUMA*         PTCLDY    78  72  80 CALM      29.98S
PORT FOURCHON* PTCLDY    84  77  79 SE9       29.99R

$$

LAZ041-044-053-054-280300-
SOUTHWEST LOUISIANA

CITY           SKY/WX    TMP DP  RH WIND       PRES   REMARKS
LAKE CHARLES   PTCLDY    80  72  76 SE6       29.97R
LAFAYETTE      MOCLDY    79  74  84 CALM      29.98R
PATTERSON        N/A     79  75  89 CALM      30.01S
SALT POINT       N/A     82  77  84 CALM      29.97R
NEW IBERIA     CLOUDY    78  75  90 E3        29.98R
CHENAULT AIRPK CLEAR     79  72  78 E3        29.98R

$$

LAZ027-028-280300-
CENTRAL LOUISIANA

CITY           SKY/WX    TMP DP  RH WIND       PRES   REMARKS
FORT POLK      PTCLDY    81  72  74 CALM      29.98R
ALEXANDRIA INT MOCLDY    81  74  79 CALM      29.96R
ALEXANDRIA     PTCLDY    79  75  87 CALM      29.98R

$$

LAZ001-002-280300-
NORTHWEST LOUISIANA

CITY           SKY/WX    TMP DP  RH WIND       PRES   REMARKS
SHREVEPORT     PTCLDY    81  65  58 E5        29.97R
BARKSDALE AFB  PTCLDY    80  67  64 E6        29.98R
DTN SHREVEPORT PTCLDY    82  67  60 CALM      29.98R

$$

LAZ014-016-280300-
NORTHEAST LOUISIANA

CITY           SKY/WX    TMP DP  RH WIND       PRES   REMARKS
MONROE         PTCLDY    77  72  84 CALM      29.99R
TALLULAH       CLEAR     72  69  90 CALM      29.98R

$$



USA.gov is the U.S. government's official web portal to all federal, state and local government web resources and services.